Date String (YYYY-MM-DD hh:mm:ss) UTC,Instrument flags,absolute air pressure of the measurement (hPa),sample flow rate (lpm),inlet stack bypass flow (lpm),air temperature of the measurement (°C),ambient temperature measured by the external sensor (°C),aerosol sample conditioner tube jacket temperature (°C),OPC LED temperature (°C),internal box temperature (°C),relative humidity of the measurement (%),span deviation,mass concentration of particles derived from Lorenz-Mie calculation of OPC scattering (μg/m³),mass concentration of particles derived from Lorenz-Mie calculation of OPC scattering (μg/m³),mass concentration of particles derived from Lorenz-Mie calculation of OPC scattering (μg/m³)
DateTimeUTC,F1_M11,P_M11,Q1_M11,Q2_M11,T1_M11,T2_M11,T3_M11,T4_M11,T5_M11,U1_M11,ZSPAN_M11,X2_M11,X0_M11,X1_M11
2023-12-17 18:00:00,SystemResetWarning,0833.3,5.00,000.00,025.6,024.9,000.0,033.6,027.0,7.7,0000.0,0001.06,0001.74,0000.77
2023-12-17 18:01:00,SystemResetWarning,0833.3,5.00,000.00,025.6,025.0,000.0,033.6,027.0,7.3,0000.0,0001.03,0001.70,0000.75
2023-12-17 18:02:00,SystemResetWarning,0833.2,5.00,000.00,025.6,025.0,000.0,033.6,027.0,7.2,0000.0,0001.02,0001.72,0000.73
2023-12-17 18:03:00,SystemResetWarning,0833.2,5.00,000.00,025.6,025.0,000.0,033.7,027.0,7.4,0000.0,0001.01,0001.63,0000.72
2023-12-17 18:04:00,SystemResetWarning,0833.2,5.00,000.00,025.6,025.0,000.0,033.7,027.1,7.0,0000.0,0001.00,0001.59,0000.71
2023-12-17 18:05:00,SystemResetWarning,0833.2,4.99,000.00,025.7,025.1,000.0,033.7,027.1,6.5,0000.0,0000.96,0001.51,0000.70
2023-12-17 18:06:00,SystemResetWarning,0833.2,5.00,000.00,025.7,025.1,000.0,033.7,027.1,6.9,0000.0,0000.93,0001.45,0000.68
2023-12-17 18:07:00,SystemResetWarning,0833.2,5.00,000.00,025.7,025.1,000.0,033.7,027.1,6.8,0000.0,0000.91,0001.45,0000.66
2023-12-17 18:08:00,SystemResetWarning,0833.1,5.00,000.00,025.7,025.1,000.0,033.7,027.2,6.5,0000.0,0000.91,0001.49,0000.65
2023-12-17 18:09:00,SystemResetWarning,0833.2,5.00,000.00,025.7,025.1,000.0,033.8,027.2,6.8,0000.0,0000.86,0001.38,0000.63
2023-12-17 18:10:00,SystemResetWarning,0833.3,5.00,000.00,025.8,025.2,000.0,033.8,027.2,6.5,0000.0,0000.81,0001.27,0000.62
2023-12-17 18:11:00,SystemResetWarning,0833.0,5.01,000.00,025.8,025.2,000.0,033.8,027.2,5.9,0000.0,0000.78,0001.13,0000.60
2023-12-17 18:12:00,SystemResetWarning,0833.0,5.00,000.00,025.8,025.2,000.0,033.8,027.3,6.1,0000.0,0000.77,0001.08,0000.59
2023-12-17 18:13:00,SystemResetWarning,0833.0,5.00,000.00,025.8,025.2,000.0,033.9,027.3,6.8,0000.0,0000.75,0001.04,0000.58
2023-12-17 18:14:00,SystemResetWarning,0833.0,5.00,000.00,025.8,025.2,000.0,033.9,027.3,6.6,0000.0,0000.71,0001.00,0000.56
2023-12-17 18:15:00,SystemResetWarning,0833.0,5.00,000.00,025.9,025.3,000.0,033.9,027.3,6.9,0000.0,0000.65,0000.92,0000.52
2023-12-17 18:16:00,SystemResetWarning,0833.1,5.00,000.00,025.9,025.3,000.0,033.9,027.3,7.8,0000.0,0000.65,0002.12,0000.50
2023-12-17 18:17:00,SystemResetWarning,0833.1,5.00,000.00,025.9,025.3,000.0,033.9,027.4,7.9,0000.0,0000.66,0002.19,0000.50
2023-12-17 18:18:00,SystemResetWarning,0833.3,5.00,000.00,025.9,025.3,000.0,034.0,027.4,8.0,0000.0,0000.63,0002.13,0000.48
2023-12-17 18:19:00,SystemResetWarning,0833.0,5.00,000.00,025.9,025.3,000.0,034.0,027.4,7.9,0000.0,0000.59,0002.06,0000.47
2023-12-17 18:20:00,SystemResetWarning,0832.9,4.99,000.00,026.0,025.3,000.0,034.0,027.4,8.0,0000.0,0000.63,0002.18,0000.49
2023-12-17 18:21:00,SystemResetWarning,0832.9,5.00,000.00,026.0,025.3,000.0,034.0,027.4,8.2,0000.0,0000.67,0002.23,0000.52
2023-12-17 18:22:00,SystemResetWarning,0833.1,4.99,000.00,026.0,025.3,000.0,034.0,027.4,8.0,0000.0,0000.69,0002.25,0000.54
2023-12-17 18:23:00,SystemResetWarning,0832.9,4.99,000.00,026.0,025.3,000.0,034.1,027.4,7.8,0000.0,0000.73,0002.53,0000.57
2023-12-17 18:24:00,SystemResetWarning,0832.9,5.00,000.00,026.0,025.3,000.0,034.1,027.4,7.7,0000.0,0000.77,0003.40,0000.60
2023-12-17 18:25:00,SystemResetWarning,0833.0,5.01,000.00,026.0,025.3,000.0,034.1,027.4,7.6,0000.0,0000.83,0003.49,0000.64
2023-12-17 18:26:00,SystemResetWarning,0833.0,5.00,000.00,026.1,025.3,000.0,034.1,027.5,7.4,0000.0,0000.90,0003.72,0000.67
2023-12-17 18:27:00,SystemResetWarning,0833.0,5.01,000.00,026.1,025.4,000.0,034.1,027.5,7.6,0000.0,0000.94,0002.79,0000.71
2023-12-17 18:28:00,SystemResetWarning,0833.0,5.00,000.00,026.1,025.4,000.0,034.2,027.5,7.7,0000.0,0000.98,0002.59,0000.74
2023-12-17 18:29:00,SystemResetWarning,0833.2,4.99,000.00,026.1,025.4,000.0,034.2,027.5,7.7,0000.0,0001.01,0002.65,0000.77
2023-12-17 18:30:00,SystemResetWarning,0832.9,5.00,000.00,026.1,025.4,000.0,034.2,027.5,7.5,0000.0,0001.04,0002.81,0000.79
2023-12-17 18:31:00,SystemResetWarning,0832.9,5.00,000.00,026.1,025.4,000.0,034.2,027.5,7.5,0000.0,0001.04,0003.12,0000.80
2023-12-17 18:32:00,SystemResetWarning,0832.9,5.01,000.00,026.1,025.5,000.0,034.2,027.6,7.6,0000.0,0001.08,0003.31,0000.80
2023-12-17 18:33:00,SystemResetWarning,0833.2,5.00,000.00,026.2,025.5,000.0,034.2,027.6,7.7,0000.0,0001.09,0003.74,0000.80
2023-12-17 18:34:00,SystemResetWarning,0833.3,5.00,000.00,026.2,025.5,000.0,034.3,027.6,7.6,0000.0,0001.08,0003.88,0000.79
2023-12-17 18:35:00,SystemResetWarning,0833.3,5.01,000.00,026.2,025.6,000.0,034.3,027.6,7.3,0000.0,0001.06,0002.88,0000.78
2023-12-17 18:36:00,SystemResetWarning,0833.2,5.00,000.00,026.2,025.6,000.0,034.3,027.6,7.2,0000.0,0001.04,0002.87,0000.77
2023-12-17 18:37:00,SystemResetWarning,0833.0,5.00,000.00,026.2,025.6,000.0,034.3,027.7,7.1,0000.0,0001.00,0002.80,0000.76
2023-12-17 18:38:00,SystemResetWarning,0832.9,4.99,000.00,026.3,025.6,000.0,034.3,027.7,6.8,0000.0,0000.96,0002.71,0000.75
2023-12-17 18:39:00,SystemResetWarning,0832.9,5.00,000.00,026.3,025.7,000.0,034.4,027.7,6.7,0000.0,0000.96,0003.10,0000.74
2023-12-17 18:40:00,SystemResetWarning,0832.9,5.00,000.00,026.3,025.7,000.0,034.4,027.7,6.7,0000.0,0000.95,0003.15,0000.72
2023-12-17 18:41:00,SystemResetWarning,0832.9,5.00,000.00,026.3,025.7,000.0,034.4,027.8,6.7,0000.0,0000.92,0003.01,0000.70
2023-12-17 18:42:00,SystemResetWarning,0832.9,5.00,000.00,026.4,025.7,000.0,034.4,027.8,6.6,0000.0,0000.88,0002.62,0000.69
2023-12-17 18:43:00,SystemResetWarning,0833.3,4.99,000.00,026.4,025.8,000.0,034.4,027.8,6.8,0000.0,0000.83,0002.37,0000.66
2023-12-17 18:44:00,SystemResetWarning,0833.3,5.02,000.00,026.4,025.8,000.0,034.5,027.8,7.4,0000.0,0000.81,0002.09,0000.64
2023-12-17 18:45:00,SystemResetWarning,0833.0,5.01,000.00,026.4,025.8,000.0,034.5,027.8,7.6,0000.0,0000.82,0001.90,0000.62
2023-12-17 18:46:00,SystemResetWarning,0832.8,5.00,000.00,026.4,025.8,000.0,034.5,027.9,7.3,0000.0,0000.81,0001.87,0000.61
2023-12-17 18:47:00,SystemResetWarning,0832.8,4.99,000.00,026.5,025.8,000.0,034.5,027.9,7.1,0000.0,0000.78,0001.80,0000.60
2023-12-17 18:48:00,SystemResetWarning,0832.8,5.00,000.00,026.5,025.9,000.0,034.5,027.9,7.3,0000.0,0000.78,0001.78,0000.59
2023-12-17 18:49:00,SystemResetWarning,0832.8,5.02,000.00,026.5,025.9,000.0,034.6,027.9,7.4,0000.0,0000.79,0002.07,0000.58
2023-12-17 18:50:00,SystemResetWarning,0832.7,5.01,000.00,026.5,025.9,000.0,034.6,028.0,7.5,0000.0,0000.76,0001.66,0000.58
2023-12-17 18:51:00,SystemResetWarning,0832.7,5.00,000.00,026.6,025.9,000.0,034.6,028.0,7.5,0000.0,0000.75,0001.58,0000.57
2023-12-17 18:52:00,SystemResetWarning,0832.7,4.99,000.00,026.6,026.0,000.0,034.6,028.0,7.3,0000.0,0000.78,0001.75,0000.58
2023-12-17 18:53:00,SystemResetWarning,0832.7,5.00,000.00,026.6,026.0,000.0,034.6,028.0,7.4,0000.0,0000.80,0001.77,0000.59
2023-12-17 18:54:00,SystemResetWarning,0832.7,5.00,000.00,026.6,026.0,000.0,034.7,028.1,7.4,0000.0,0000.81,0001.82,0000.61
2023-12-17 18:55:00,SystemResetWarning,0832.7,5.00,000.00,026.6,026.1,000.0,034.7,028.1,7.4,0000.0,0000.80,0002.69,0000.63
2023-12-17 18:56:00,SystemResetWarning,0832.6,5.00,000.00,026.7,026.1,000.0,034.7,028.1,7.2,0000.0,0000.83,0002.76,0000.64
2023-12-17 18:57:00,SystemResetWarning,0832.6,5.00,000.00,026.7,026.1,000.0,034.7,028.2,6.8,0000.0,0000.85,0002.83,0000.66
2023-12-17 18:58:00,SystemResetWarning,0832.7,5.01,000.00,026.7,026.1,000.0,034.7,028.2,6.7,0000.0,0000.88,0003.06,0000.67
2023-12-17 18:59:00,SystemResetWarning,0832.7,5.01,000.00,026.7,026.1,000.0,034.8,028.2,6.9,0000.0,0000.87,0003.61,0000.67
